TimeEST,TemperatureF,Dew PointF,Humidity,Sea Level PressureIn,VisibilityMPH,Wind Direction,Wind SpeedMPH,Gust SpeedMPH,PrecipitationIn,Events,Conditions,WindDirDegrees,DateUTC
12:15 AM,5.0,-0.4,78,30.02,7.0,East,6.9,-,N/A,,Clear,80,2014-02-13 05:15:00
12:35 AM,8.6,1.4,73,30.02,7.0,East,4.6,-,N/A,,Clear,80,2014-02-13 05:35:00
12:55 AM,6.8,-0.4,72,30.02,7.0,East,6.9,-,N/A,,Clear,90,2014-02-13 05:55:00
1:15 AM,6.8,-0.4,72,30.02,7.0,East,5.8,-,N/A,,Clear,80,2014-02-13 06:15:00
1:35 AM,5.0,-0.4,78,30.02,7.0,East,8.1,-,N/A,,Clear,100,2014-02-13 06:35:00
1:55 AM,3.2,-0.4,85,30.03,7.0,East,5.8,-,N/A,,Clear,80,2014-02-13 06:55:00
2:15 AM,5.0,-0.4,78,30.03,7.0,Calm,Calm,-,N/A,,Clear,0,2014-02-13 07:15:00
2:35 AM,5.0,-0.4,78,30.03,7.0,Calm,Calm,-,N/A,,Clear,0,2014-02-13 07:35:00
2:55 AM,3.2,-0.4,85,30.01,7.0,East,4.6,-,N/A,,Clear,90,2014-02-13 07:55:00
3:15 AM,1.4,-4.0,78,30.01,7.0,ENE,3.5,-,N/A,,Clear,70,2014-02-13 08:15:00
3:35 AM,5.0,1.4,85,30.01,7.0,Calm,Calm,-,N/A,,Clear,0,2014-02-13 08:35:00
3:55 AM,3.2,-0.4,85,30.00,7.0,Calm,Calm,-,N/A,,Clear,0,2014-02-13 08:55:00
4:15 AM,5.0,1.4,85,29.99,7.0,Calm,Calm,-,N/A,,Clear,0,2014-02-13 09:15:00
4:35 AM,3.2,-0.4,85,29.98,7.0,Calm,Calm,-,N/A,,Clear,0,2014-02-13 09:35:00
4:55 AM,5.0,1.4,85,29.98,5.0,North,4.6,-,N/A,,Scattered Clouds,350,2014-02-13 09:55:00
5:15 AM,3.2,-0.4,85,29.97,5.0,Calm,Calm,-,N/A,,Mostly Cloudy,0,2014-02-13 10:15:00
5:35 AM,1.4,-2.2,85,29.95,5.0,ENE,3.5,-,N/A,,Scattered Clouds,60,2014-02-13 10:35:00
5:55 AM,5.0,1.4,85,29.96,5.0,Calm,Calm,-,N/A,,Clear,0,2014-02-13 10:55:00
6:15 AM,-2.2,-5.8,85,29.96,5.0,East,4.6,-,N/A,,Clear,90,2014-02-13 11:15:00
6:35 AM,-0.4,-5.8,78,29.95,4.0,ESE,9.2,-,N/A,,Clear,110,2014-02-13 11:35:00
6:55 AM,-0.4,-4.0,85,29.95,7.0,ESE,6.9,-,N/A,,Clear,110,2014-02-13 11:55:00
7:15 AM,-0.4,-5.8,78,29.95,7.0,East,4.6,-,N/A,,Clear,90,2014-02-13 12:15:00
7:35 AM,-0.4,-5.8,78,29.95,5.0,East,5.8,-,N/A,,Haze,100,2014-02-13 12:35:00
7:55 AM,-2.2,-7.6,78,29.94,4.0,ESE,5.8,-,N/A,,Haze,110,2014-02-13 12:55:00
8:15 AM,-2.2,-5.8,85,29.93,4.0,ESE,6.9,-,N/A,,Clear,120,2014-02-13 13:15:00
8:35 AM,-0.4,-5.8,78,29.93,4.0,ESE,4.6,-,N/A,,Clear,110,2014-02-13 13:35:00
8:55 AM,1.4,-2.2,85,29.92,4.0,ESE,4.6,-,N/A,,Clear,110,2014-02-13 13:55:00
9:15 AM,3.2,-0.4,85,29.90,4.0,ESE,6.9,-,N/A,,Clear,120,2014-02-13 14:15:00
9:35 AM,5.0,1.4,85,29.89,4.0,ESE,6.9,-,N/A,,Haze,110,2014-02-13 14:35:00
9:55 AM,6.8,1.4,79,29.89,4.0,ESE,4.6,-,N/A,,Haze,110,2014-02-13 14:55:00
10:15 AM,10.4,1.4,67,29.88,5.0,East,3.5,-,N/A,,Haze,100,2014-02-13 15:15:00
10:35 AM,12.2,3.2,67,29.87,5.0,East,5.8,-,N/A,,Haze,100,2014-02-13 15:35:00
10:55 AM,14.0,5.0,67,29.88,5.0,East,3.5,-,N/A,,Haze,80,2014-02-13 15:55:00
11:15 AM,14.0,5.0,67,29.88,5.0,East,6.9,-,N/A,,Haze,100,2014-02-13 16:15:00
11:35 AM,15.8,6.8,68,29.87,5.0,East,6.9,-,N/A,,Haze,100,2014-02-13 16:35:00
11:55 AM,17.6,8.6,68,29.86,5.0,ESE,5.8,-,N/A,,Haze,110,2014-02-13 16:55:00
12:15 PM,19.4,8.6,63,29.84,5.0,ESE,6.9,-,N/A,,Haze,110,2014-02-13 17:15:00
12:35 PM,21.2,10.4,63,29.82,7.0,ESE,5.8,-,N/A,,Clear,120,2014-02-13 17:35:00
12:55 PM,23.0,12.2,63,29.82,7.0,SSE,3.5,-,N/A,,Clear,150,2014-02-13 17:55:00
1:15 PM,23.0,12.2,63,29.81,7.0,SSE,3.5,-,N/A,,Clear,160,2014-02-13 18:15:00
1:35 PM,26.6,14.0,59,29.80,10.0,South,4.6,-,N/A,,Clear,190,2014-02-13 18:35:00
1:55 PM,26.6,14.0,59,29.79,10.0,South,5.8,-,N/A,,Clear,180,2014-02-13 18:55:00
2:35 PM,28.4,14.0,55,29.75,10.0,South,6.9,-,N/A,,Overcast,170,2014-02-13 19:35:00
2:55 PM,28.4,15.8,59,29.72,10.0,SSE,8.1,-,N/A,,Overcast,150,2014-02-13 19:55:00
3:15 PM,28.4,17.6,64,29.71,10.0,SSE,6.9,-,N/A,,Overcast,160,2014-02-13 20:15:00
3:35 PM,30.2,17.6,60,29.70,10.0,South,6.9,-,N/A,,Overcast,170,2014-02-13 20:35:00
3:55 PM,30.2,17.6,60,29.69,10.0,South,8.1,-,N/A,,Mostly Cloudy,170,2014-02-13 20:55:00
4:15 PM,30.2,17.6,60,29.67,10.0,South,8.1,-,N/A,,Overcast,170,2014-02-13 21:15:00
4:35 PM,30.2,17.6,60,29.66,10.0,South,5.8,-,N/A,,Overcast,170,2014-02-13 21:35:00
4:55 PM,30.2,17.6,60,29.65,10.0,South,11.5,-,N/A,,Mostly Cloudy,180,2014-02-13 21:55:00
5:15 PM,30.2,14.0,51,29.64,10.0,South,10.4,-,N/A,,Scattered Clouds,170,2014-02-13 22:15:00
5:35 PM,30.2,14.0,51,29.63,10.0,South,9.2,-,N/A,,Clear,170,2014-02-13 22:35:00
5:55 PM,26.6,14.0,59,29.62,10.0,South,10.4,-,N/A,,Clear,180,2014-02-13 22:55:00
6:15 PM,23.0,12.2,63,29.63,10.0,SSW,9.2,-,N/A,,Clear,200,2014-02-13 23:15:00
6:35 PM,21.2,10.4,63,29.63,10.0,SSW,9.2,-,N/A,,Clear,210,2014-02-13 23:35:00
6:55 PM,23.0,12.2,63,29.63,10.0,SW,9.2,-,N/A,,Clear,220,2014-02-13 23:55:00
7:15 PM,24.8,12.2,59,29.64,10.0,SW,10.4,-,N/A,,Mostly Cloudy,220,2014-02-14 00:15:00
7:35 PM,28.4,14.0,55,29.64,10.0,SW,9.2,-,N/A,,Overcast,220,2014-02-14 00:35:00
7:55 PM,30.2,14.0,51,29.63,10.0,SSW,9.2,-,N/A,,Overcast,210,2014-02-14 00:55:00
8:15 PM,28.4,17.6,64,29.61,10.0,SSW,10.4,-,N/A,,Overcast,200,2014-02-14 01:15:00
8:55 PM,30.2,19.4,64,29.61,10.0,SW,12.7,-,N/A,,Overcast,220,2014-02-14 01:55:00
9:15 PM,30.2,19.4,64,29.60,10.0,SW,12.7,-,N/A,,Overcast,230,2014-02-14 02:15:00
9:35 PM,30.2,19.4,64,29.60,10.0,WSW,17.3,-,N/A,,Overcast,240,2014-02-14 02:35:00
9:55 PM,30.2,21.2,69,29.59,10.0,SW,17.3,-,N/A,,Overcast,230,2014-02-14 02:55:00
10:15 PM,32.0,21.2,64,29.58,10.0,SW,16.1,-,N/A,,Overcast,230,2014-02-14 03:15:00
10:35 PM,32.0,21.2,64,29.58,10.0,SW,16.1,-,N/A,,Overcast,230,2014-02-14 03:35:00
10:55 PM,32.0,23.0,69,29.57,10.0,SW,17.3,-,N/A,,Overcast,230,2014-02-14 03:55:00
11:15 PM,32.0,23.0,69,29.56,10.0,SW,17.3,-,N/A,,Overcast,230,2014-02-14 04:15:00
11:35 PM,32.0,24.8,75,29.56,10.0,WSW,20.7,-,N/A,,Overcast,250,2014-02-14 04:35:00
11:55 PM,32.0,26.6,80,29.56,7.0,West,21.9,38.0,N/A,,Scattered Clouds,260,2014-02-14 04:55:00